Regional Weather Roundup
Issued by NWS

Home | Current Version | Previous Version | Text Only | Print | Product List | Glossary On
Versions: 1 2 3 4 5 6 7 8 9 10 11 12 13 14 15 16 17 18 19 20 21 22 23 24 25 26 27 28 29 30 31 32 33 34 35 36 37 38 39 40 41 42 43 44 45 46 47 48 49 50
000
ASUS44 KFWD 260015
RWRTX
NORTH TEXAS HOURLY WEATHER ROUNDUP
NATIONAL WEATHER SERVICE FORT WORTH TX
700 PM CDT TUE APR 25 2017

NOTE: "FAIR" INDICATES FEW OR NO CLOUDS BELOW 12,000 FEET WITH NO
SIGNIFICANT WEATHER AND/OR OBSTRUCTIONS TO VISIBILITY.

TXZ118-119-260100-
DALLAS/FORT WORTH METROPLEX

CITY           SKY/WX    TMP DP  RH WIND       PRES   REMARKS
DFW AIRPORT    CLOUDY    83  68  60 S24G31    29.41F
6HR MIN TEMP:  80; 6HR MAX TEMP:  86;

DALLAS LOVE    CLOUDY    84  67  56 S18G26    29.42F
6HR MIN TEMP:  81; 6HR MAX TEMP:  86;

FTW MEACHAM    MOSUNNY   83  68  60 S21G30    29.41S
6HR MIN TEMP:  82; 6HR MAX TEMP:  88;

DAL-EXECUTIVE  MOSUNNY   82  68  62 S14G28    29.42F
6HR MIN TEMP:  78; 6HR MAX TEMP:  84;

FTW-ALLIANCE   PTSUNNY   82  67  60 S15G32    29.40S
6HR MIN TEMP:  81; 6HR MAX TEMP:  86;

FTW-NAS-JRB    CLOUDY    83  67  58 S17       29.41F
6HR MIN TEMP:  82; 6HR MAX TEMP:  87;

FTW-SPINKS     SUNNY     81  66  61 S17G24    29.45S
ARLINGTON      CLOUDY    82  67  60 S15G26    29.42F
6HR MIN TEMP:  79; 6HR MAX TEMP:  84;

GRAND PRAIRIE  SUNNY     82  66  57 S16G25    29.45S
ADDISON        MOSUNNY   82  66  57 S20G36    29.43S
MESQUITE       MOSUNNY   81  66  61 S16G25    29.45F
LANCASTER      CLOUDY    80  67  63 S17G26    29.44F
6HR MIN TEMP:  77; 6HR MAX TEMP:  84;

$$

TXZ091>094-102>105-117-120-121-131>134-260100-
NORTH CENTRAL TEXAS

CITY           SKY/WX    TMP DP  RH WIND       PRES   REMARKS
SHRMAN/DENISON MOSUNNY   79  66  64 S16       29.42S
6HR MIN TEMP:  79; 6HR MAX TEMP:  83;

GAINESVILLE    MOSUNNY   79  66  64 S15G21    29.41F
6HR MIN TEMP:  79; 6HR MAX TEMP:  83;

BOWIE          SUNNY     82  68  61 SE15G23   29.37S
6HR MIN TEMP:  82; 6HR MAX TEMP:  87;

BRIDGEPORT     MOSUNNY   83  66  55 S21       29.39S
6HR MIN TEMP:  83; 6HR MAX TEMP:  88;

DECATUR        SUNNY     81  66  61 S21G31    29.40S
6HR MIN TEMP:  81; 6HR MAX TEMP:  87;

DENTON         MOSUNNY   81  67  62 S18G26    29.40F
6HR MIN TEMP:  81; 6HR MAX TEMP:  84;

MCKINNEY       MOSUNNY   81  69  67 S21G28    29.42S
6HR MIN TEMP:  79; 6HR MAX TEMP:  83;

BONHAM         CLOUDY    79  66  65 S20G28    29.43F
GREENVILLE     PTSUNNY   82  68  61 S13       29.47S
ROCKWALL       PTSUNNY   81  69  66 S17G23    29.45S
6HR MIN TEMP:  78; 6HR MAX TEMP:  85;

TERRELL        CLOUDY    81  67  62 S14       29.47S
WAXAHACHIE     PTSUNNY   80  68  67 S14G22    29.45F
6HR MIN TEMP:  77; 6HR MAX TEMP:  83;

CLEBURNE       CLOUDY    81  72  74 S15G22    29.45S
GRANBURY       CLOUDY    85  66  54 SE17G28   29.42R
6HR MIN TEMP:  83; 6HR MAX TEMP:  90;

$$

TXZ083>090-098>101-113>116-127>130-139>142-154-155-260100-
WESTERN NORTH TEXAS

CITY           SKY/WX    TMP DP  RH WIND       PRES   REMARKS
WICHITA FALLS  CLOUDY    86  58  38 SE9       29.31F
6HR MIN TEMP:  85; 6HR MAX TEMP:  93;

WF-KICKAPOO    CLOUDY    86  60  42 SW3       29.32S
6HR MIN TEMP:  85; 6HR MAX TEMP:  94;

VERNON         CLOUDY    85  31  14 N10       29.36F
6HR MIN TEMP:  44; 6HR MAX TEMP:  94;

ABILENE        PTSUNNY   89  38  16 S14G24    29.40F
6HR MIN TEMP:  88; 6HR MAX TEMP:  95;

ABILENE-DYESS  MOSUNNY   92  43  18 W13       29.38S
6HR MIN TEMP:  89; 6HR MAX TEMP:  95;

GRAHAM         SUNNY     88  59  37 SE10G21   29.34S
6HR MIN TEMP:  88; 6HR MAX TEMP:  95;

BRECKENRIDGE   SUNNY     90  49  24 S13       29.36F HAZE
6HR MIN TEMP:  90; 6HR MAX TEMP:  97;

CISCO          SUNNY     90  46  22 S10G18    29.42S
RANGER         SUNNY     85  62  45 S15       29.42S
6HR MIN TEMP:  60; 6HR MAX TEMP:  89;

MINERAL WELLS  MOSUNNY   86  64  47 S18G24    29.38S
6HR MIN TEMP:  84; 6HR MAX TEMP:  93;

STEPHENVILLE   MOSUNNY   83  65  55 S13G23    29.45S
6HR MIN TEMP:  82; 6HR MAX TEMP:  89;

COMANCHE       MOSUNNY   84  64  50 S14G21    29.43S
6HR MIN TEMP:  82; 6HR MAX TEMP:  91;

BROWNWOOD      SUNNY     84  64  51 SE15G21   29.43R
COLEMAN        MOSUNNY   87  40  18 S9        29.43S
6HR MIN TEMP:  87; 6HR MAX TEMP:  93;

$$

TXZ143>147-156>162-174-175-260100-
CENTRAL TEXAS

CITY           SKY/WX    TMP DP  RH WIND       PRES   REMARKS
WACO           MOSUNNY   80  69  69 S17       29.46S
6HR MIN TEMP:  77; 6HR MAX TEMP:  84; 6HR PCP: TRACE;

WACO-TSTC      MOSUNNY   81  68  65 S12G23    29.47S
WACO-MCGREGOR  PTSUNNY   81  70  69 SE17      29.46F
6HR MIN TEMP:  78; 6HR MAX TEMP:  85;

HILLSBORO      CLOUDY    81  69  67 S16G24    29.45F
6HR MIN TEMP:  77; 6HR MAX TEMP:  84;

CORSICANA      CLOUDY    82  69  64 S13       29.50R
6HR MIN TEMP:  78; 6HR MAX TEMP:  86;

MEXIA          CLOUDY    80  67  64 S16G31    29.49R
6HR MIN TEMP:  76; 6HR MAX TEMP:  84;

HEARNE         CLOUDY    80  69  69 SE18      29.51S
6HR MIN TEMP:  80; 6HR MAX TEMP:  84;

CAMERON        CLOUDY    81  68  65 S13       29.49S
6HR MIN TEMP:  80; 6HR MAX TEMP:  86;

KILLEEN        SUNNY     83  68  60 SE18G24   29.45F
6HR MIN TEMP:  80; 6HR MAX TEMP:  86;

KILLEEN-SKYLRK MOSUNNY   83  70  64 SE16      29.47F
6HR MIN TEMP:  79; 6HR MAX TEMP:  87;

FORT HOOD      SUNNY     83  68  61 S13       29.43F
6HR MIN TEMP:  79; 6HR MAX TEMP:  87;

GATESVILLE     MOSUNNY   82  68  61 SE12      29.46F
HAMILTON       MOSUNNY   84  65  52 S16G23    29.46S
6HR MIN TEMP:  82; 6HR MAX TEMP:  88;

LAMPASAS       CLOUDY    83  67  57 S6        29.46S
6HR MIN TEMP:  81; 6HR MAX TEMP:  85;

$$

TXZ095>097-106>112-122>126-135>138-148>153-164>167-260100-
EAST TEXAS

CITY           SKY/WX    TMP DP  RH WIND       PRES   REMARKS
PARIS          CLOUDY    79  64  61 S18       29.48S
6HR MIN TEMP:  75; 6HR MAX TEMP:  82;

SULPHUR SPRNGS CLOUDY    80  66  62 S13       29.49S
6HR MIN TEMP:  75; 6HR MAX TEMP:  83;

MOUNT PLEASANT MOSUNNY   80  64  58 S12G22    29.51S
6HR MIN TEMP:  77; 6HR MAX TEMP:  84;

GILMER         CLOUDY    78  66  64 SE12G20   29.50F
6HR MIN TEMP:  75; 6HR MAX TEMP:  83;

MINEOLA        CLOUDY    81  66  61 S10G18    29.49R
TYLER          CLOUDY    80  67  64 S14       29.49F
6HR MIN TEMP:  78; 6HR MAX TEMP:  84;

LONGVIEW       CLOUDY    79  68  69 SE10      29.52S
6HR MIN TEMP:  78; 6HR MAX TEMP:  83;

MARSHALL       CLOUDY    75  64  67 S12       29.55F
6HR MIN TEMP:  75; 6HR MAX TEMP:  82;

ATHENS         CLOUDY    79  64  61 S13G25    29.48S
PALESTINE      MOSUNNY   82  69  65 S13G23    29.51S
JACKSONVILLE   CLOUDY    78  68  71 S13G20    29.55F
HENDERSON      CLOUDY    79  65  63 S17       29.53F
6HR MIN TEMP:  77; 6HR MAX TEMP:  83;

CENTER         CLOUDY    80  69  69 SE12G17   29.58S
6HR MIN TEMP:  79; 6HR MAX TEMP:  84;

NACOGDOCHES    CLOUDY    77  66  69 S12G17    29.54S
6HR MIN TEMP:  77; 6HR MAX TEMP:  82;

LUFKIN         CLOUDY    76  68  76 S15G22    29.57R
6HR MIN TEMP:  76; 6HR MAX TEMP:  83; 6HR PCP: TRACE;

$$

SUPPLEMENTAL OBSERVATIONS (CENTRAL)

CITY           SKY/WX    TMP DP  RH WIND       PRES   REMARKS
DENISON DAM      N/A     81  66  61 S12         N/A
CADDO GRASSLND   N/A     79  64  61 S13G23      N/A
PAT MAYSE LAKE   N/A     79  70  73 SE14        N/A
GREENVILLE       N/A     81  68  65 S10G20      N/A
CEDAR HILL       N/A     82  68  61 S14G26      N/A
A


USA.gov is the U.S. government's official web portal to all federal, state and local government web resources and services.